Regional Weather Roundup
Issued by NWS San Angelo, TX

Home | Current Version | Previous Version | Text Only | Print | Product List | Glossary On
Versions: 1 2 3 4 5 6 7 8 9 10 11 12 13 14 15 16 17 18 19 20 21 22 23 24 25 26 27 28 29 30 31 32 33 34 35 36 37 38 39 40 41 42 43 44 45 46 47 48 49 50
160
ASUS44 KSJT 220310
RWRSJT
WEST CENTRAL TEXAS REGIONAL WEATHER ROUNDUP
NATIONAL WEATHER SERVICE SAN ANGELO TX
900 PM CST SAT JAN 21 2017

NOTE: "FAIR" INDICATES FEW OR NO CLOUDS BELOW 12,000 FEET WITH NO
SIGNIFICANT WEATHER AND/OR OBSTRUCTIONS TO VISIBILITY.

TXZ049-054-064>066-071>073-076>078-098-099-113-114-127-128-139-140-
154-155-168>170-220400
...LOCATIONS ACROSS WEST CENTRAL TEXAS...

CITY           SKY/WX    TMP DP  RH WIND       PRES   REMARKS
SAN ANGELO     CLEAR     55  32  41 SW21G36   29.57R
ABILENE        MOCLDY    54  36  50 SW14      29.50R
DYESS AFB      MOCLDY    55  34  44 W15G22    29.48R
JUNCTION       CLEAR     56  39  53 W17G26    29.64S
SWEETWATER     CLEAR     52  32  47 SW17      29.52S
BROWNWOOD      CLOUDY    54  41  62 SW14G21   29.55R
COLEMAN        PTCLDY    55  37  50 SW16G25   29.54S
SONORA         PTCLDY    55  34  44 W12G26    29.71S
OZONA          FAIR      50  34  53 MISG      29.69S
BRADY          NOT AVBL
$$

TEXAS PANHANDLE/OKLAHOMA PANHANDLE

CITY           SKY/WX    TMP DP  RH WIND       PRES   REMARKS
AMARILLO       LGT RAIN  42  40  92 W15       29.35R WCI  34
BORGER         LGT RAIN  43  41  93 N5        29.34R
CANADIAN       CLOUDY    39  39  98 CALM      29.34R
DALHART        CLOUDY    39  34  82 NW17      29.40R WCI  30
DUMAS          CLOUDY    38  36  92 NW20      29.36R WCI  27
GUYMON         NOT AVBL
HEREFORD       CLOUDY    44  38  80 N20       29.40R WCI  35
PAMPA          CLOUDY    39  38  96 CALM      29.34S
PERRYTON       CLOUDY    45  43  94 N5        29.32R
$$

SOUTHERN PANHANDLE/SOUTH PLAINS/ROLLING PLAINS

CITY           SKY/WX    TMP DP  RH WIND       PRES   REMARKS
LUBBOCK        PTCLDY    45  28  51 W26G33    29.43R WCI  36
SNYDER         CLEAR     50  32  50 SW21      29.50S
CHILDRESS      CLEAR     48  34  58 SW10      29.35S
SEMINOLE       CLEAR     45  28  51 W28G35    29.58R WCI  36
$$

PERMIAN BASIN

CITY           SKY/WX    TMP DP  RH WIND       PRES   REMARKS
MIDLAND        PTCLDY    51  24  34 W31G40    29.59R
ODESSA         CLEAR     51  23  33 W30G41    29.62R
WINK           CLEAR     50  24  36 W26G36    29.65R
$$

FAR WEST/SOUTHWEST MOUNTAINS/TRANS PECOS

CITY           SKY/WX    TMP DP  RH WIND       PRES   REMARKS
ALPINE         PTCLDY    41  32  71 W20G26    29.85R WCI  32
DRYDEN           N/A     56  35  45 W18G29    29.71R
EL PASO        PTCLDY    45  23  42 W32G49    29.83R WCI  35
FORT STOCKTON  CLEAR     49  29  46 W22G35    29.73R
GUADALUPE PASS CLOUDY    37  24  59 W55G76      N/A  WCI  21
MARFA          CLOUDY    38  31  76 W18G28    29.84R WCI  28
PECOS          NOT AVBL
$$

DALLAS/FORT WORTH METROPLEX

CITY           SKY/WX    TMP DP  RH WIND       PRES   REMARKS
DFW AIRPORT    CLOUDY    60  51  72 VRB7      29.42F
FTW MEACHAM    CLOUDY    64  35  34 SW17G24   29.44R
DAL-EXECUTIVE  CLOUDY    65  40  39 W21G33    29.47R
GRAND PRAIRIE  CLOUDY    64  38  38 SW15G38   29.47S
ADDISON        MOCLDY    57  54  88 SE10      29.45F
MESQUITE       CLOUDY    57  56  97 S6        29.46R
LANCASTER      CLOUDY    62  46  56 SW13G18   29.48S
$$

NORTH CENTRAL TEXAS

CITY           SKY/WX    TMP DP  RH WIND       PRES   REMARKS
SHRMAN/DENISON MOCLDY    59  53  81 S14       29.42S
GAINESVILLE    NOT AVBL
BRIDGEPORT     CLOUDY    63  37  38 SW14G24   29.44R
DENTON         CLOUDY    55  49  80 SE7       29.43S
WAXAHACHIE     CLOUDY    63  40  43 W31G43    29.50R
GRANBURY       CLOUDY    59  42  52 S13       29.50S
$$

WESTERN NORTH TEXAS

CITY           SKY/WX    TMP DP  RH WIND       PRES   REMARKS
WICHITA FALLS  PTCLDY    56  39  53 W9        29.36S
VERNON         MOCLDY    53  38  56 S8        29.37S
BRECKENRIDGE   MOCLDY    61  34  35 SW17G23   29.46S
COMANCHE       MOCLDY    55  43  64 SW15G22   29.52S
$$

CENTRAL AND SOUTH CENTRAL TEXAS

CITY           SKY/WX    TMP DP  RH WIND       PRES   REMARKS
AUSTIN/BERGSTM CLOUDY    69  40  34 NW16G23   29.57R
WACO           RAIN      56  48  74 W32G49    29.56R
HILLSBORO      DRIZZLE   58  46  64 SW17G36   29.53R
TEMPLE         LGT RAIN  58  48  69 W22G28    29.56R
KILLEEN-GRAY   MOCLDY    54  48  82 W7        29.56F
FORT HOOD      MOCLDY    55  47  73 W9        29.52F
GEORGETOWN     CLEAR     63  41  45 W17G24    29.58R
LAGO VISTA     CLOUDY    63  41  44 W13G24    29.60R
SAN MARCOS     MOCLDY    64  41  42 NW16      29.58R
NEW BRAUNFELS  CLOUDY    67  40  37 NW16G24   29.58R
RANDOLPH AFB   CLOUDY    66  39  37 NW18G24   29.59R
SAN ANTONIO    CLOUDY    67  38  34 NW24G37   29.59R
STINSON        CLOUDY    70  38  31 NW15G25   29.58R
PLEASANTON     NOT AVBL
LA GRANGE      CLOUDY    70  46  42 N14G21    29.52R
GIDDINGS       CLOUDY    69  40  35 NW13      29.56R
$$

EAST TEXAS

CITY           SKY/WX    TMP DP  RH WIND       PRES   REMARKS
PARIS          PTCLDY    55  52  88 W3        29.41F
CLARKSVILLE    NOT AVBL
TYLER          CLOUDY    60  58  92 SW7       29.46F
LONGVIEW       PTCLDY    62  60  93 W5        29.45F
PALESTINE      MOCLDY    60  58  95 CALM      29.50F
NACOGDOCHES    CLEAR     57  55  94 SW6       29.47F
$$

TEXAS HILL COUNTRY AND EDWARDS PLATEAU

CITY           SKY/WX    TMP DP  RH WIND       PRES   REMARKS
LLANO          CLOUDY    59  43  55 SW12      29.61F
HORSESHOE BAY  LGT RAIN  61  42  48 W10       29.60S
KERRVILLE      CLOUDY    59  40  49 NW14G25   29.62F
FREDERICKSBRG  PTCLDY    58  38  47 W21G26    29.62F
ROCKSPRINGS    CLEAR     55  37  50 NW18G24   29.70R
HONDO          PTCLDY    66  39  37 N16G22    29.62R
UVALDE         PTCLDY    64  39  41 NW12G22   29.63S
DEL RIO        MOCLDY    60  43  53 NW21G29   29.69R
$$

SOUTHEAST TEXAS

CITY           SKY/WX    TMP DP  RH WIND       PRES   REMARKS
COLLEGE STN    CLOUDY    69  44  40 NW10      29.51R
CALDWELL       NOT AVBL
CROCKETT       LGT RAIN  57  55  94 N5        29.51F
BRENHAM        PTCLDY    66  48  52 NW7       29.52F
HUNTSVILLE     PTCLDY    63  55  75 SW6       29.50R
CONROE         PTCLDY    57  55  93 N3        29.50R
HOUSTON BUSH   MOCLDY    63  56  78 VRB5      29.46F
HOUSTON HOBBY  CLOUDY    68  61  78 SE6G17    29.48R
PERLAND        CLOUDY    69  64  84 CALM      29.49R HAZE
WHARTON        CLOUDY    67  64  89 SE5       29.48S FOG
$$

THE UPPER TEXAS COAST

CITY           SKY/WX    TMP DP  RH WIND       PRES   REMARKS
ORANGE           N/A     65  64  96 S3        29.51R FOG
PORT ARTHUR    PTCLDY    65  63  93 SW6       29.49R FOG
GALVESTON      PTCLDY    67  66  97 N3        29.48R FOG
ANGLETON       MOCLDY    65  63  93 S10       29.51R FOG
BAY CITY       DRIZZLE   63  63 100 SE5       29.49R
$$

TEXAS COASTAL BEND, RIO GRANDE PLAINS DEEP SOUTH TEXAS

CITY           SKY/WX    TMP DP  RH WIND       PRES   REMARKS
VICTORIA       MOCLDY    66  63  90 E6        29.51R
BEEVILLE       FAIR      70  50  48 NW13      29.51R
ROCKPORT       CLEAR     69  61  75 S8        29.45R
PORT ARANSAS   CLEAR     67  60  77 S16       29.46R
PORT LAVACA    CLOUDY    65  65 100 N5        29.49R FOG
CORPUS CHRISTI PTCLDY    68  58  70 S14       29.46R
KINGSVILLE NAS   N/A     69  50  50 S8        29.48R
COTULLA        CLEAR     70  38  31 N18G26    29.62R
LAREDO         CLEAR     72  39  30 N15G24    29.60R
BROWNSVILLE    CLEAR     70  58  65 S12       29.45S
PORT ISABEL    CLEAR     72  58  61 S12       29.44R
HEBBRONVILLE   CLEAR     74  35  24 N10G20    29.56R
MCALLEN        PTCLDY    72  55  55 SE7       29.45R
WESLACO        CLEAR     71  55  58 S6        29.44R
FALFURRIAS     CLEAR     73  46  38 S5        29.48R
EDINBURG       CLEAR     71  53  51 NE7       29.46R
$$




USA.gov is the U.S. government's official web portal to all federal, state and local government web resources and services.